| time (UTC) | temp F | wind direction | speed MPH | gust MPH | rain 1hr in | rain 24hr in | rain mn in | humidity % | barometer mb |
| 20260506033502 | 64 | 300 | 0.0 | 1.0 | 0.00 | 0.00 | 0.00 | 51 | 1015.0 |
| 20260506033007 | 65 | 300 | 0.0 | 1.0 | 0.00 | 0.00 | 0.00 | 50 | 1015.0 |
| 20260506032504 | 66 | 300 | 0.0 | 1.0 | 0.00 | 0.00 | 0.00 | 48 | 1015.0 |
| 20260506032003 | 67 | 300 | 0.0 | 0.0 | 0.00 | 0.00 | 0.00 | 47 | 1015.0 |
| 20260506031510 | 67 | 300 | 0.0 | 0.0 | 0.00 | 0.00 | 0.00 | 46 | 1014.9 |
| 20260506031006 | 68 | 300 | 0.0 | 1.0 | 0.00 | 0.00 | 0.00 | 45 | 1014.9 |
| 20260506030506 | 69 | 300 | 0.0 | 3.0 | 0.00 | 0.00 | 0.00 | 44 | 1014.8 |
| 20260506030015 | 69 | 300 | 0.0 | 3.0 | 0.00 | 0.00 | 0.00 | 43 | 1014.7 |
| 20260506025502 | 69 | 271 | 0.0 | 1.0 | 0.00 | 0.00 | 0.00 | 43 | 1014.7 |
| 20260506025004 | 69 | 271 | 0.0 | 1.0 | 0.00 | 0.00 | 0.00 | 43 | 1014.6 |
| 20260506024505 | 69 | 270 | 1.0 | 1.0 | 0.00 | 0.00 | 0.00 | 44 | 1014.7 |
| 20260506024002 | 69 | 268 | 0.0 | 1.0 | 0.00 | 0.00 | 0.00 | 44 | 1014.6 |
| 20260506023503 | 69 | 269 | 0.0 | 3.0 | 0.00 | 0.00 | 0.00 | 44 | 1014.6 |
| 20260506023007 | 69 | 251 | 0.0 | 3.0 | 0.00 | 0.00 | 0.00 | 43 | 1014.6 |
| 20260506022506 | 69 | 288 | 1.0 | 3.0 | 0.00 | 0.00 | 0.00 | 43 | 1014.5 |
| 20260506022004 | 70 | 277 | 1.0 | 2.0 | 0.00 | 0.00 | 0.00 | 44 | 1014.5 |
| 20260506021510 | 70 | 274 | 0.0 | 2.0 | 0.00 | 0.00 | 0.00 | 44 | 1014.5 |
| 20260506021009 | 70 | 287 | 1.0 | 2.0 | 0.00 | 0.00 | 0.00 | 44 | 1014.5 |
| 20260506020507 | 70 | 285 | 1.0 | 2.0 | 0.00 | 0.00 | 0.00 | 44 | 1014.5 |
| 20260506020015 | 70 | 281 | 0.0 | 3.0 | 0.00 | 0.00 | 0.00 | 43 | 1014.4 |
| 20260506015506 | 70 | 294 | 1.0 | 3.0 | 0.00 | 0.00 | 0.00 | 43 | 1014.4 |
| 20260506015008 | 70 | 281 | 1.0 | 2.0 | 0.00 | 0.00 | 0.00 | 43 | 1014.4 |
| 20260506014520 | 70 | 285 | 1.0 | 2.0 | 0.00 | 0.00 | 0.00 | 44 | 1014.4 |
| 20260506014003 | 70 | 267 | 0.0 | 3.0 | 0.00 | 0.00 | 0.00 | 46 | 1014.3 |
| 20260506013502 | 69 | 248 | 0.0 | 5.0 | 0.00 | 0.00 | 0.00 | 47 | 1014.3 |
| 20260506013006 | 69 | 264 | 1.0 | 5.0 | 0.00 | 0.00 | 0.00 | 48 | 1014.2 |
| 20260506012504 | 70 | 257 | 1.0 | 4.0 | 0.00 | 0.00 | 0.00 | 47 | 1014.2 |
| 20260506012006 | 70 | 250 | 2.0 | 4.0 | 0.00 | 0.00 | 0.00 | 46 | 1014.2 |
| 20260506011514 | 71 | 262 | 2.0 | 4.0 | 0.00 | 0.00 | 0.00 | 44 | 1014.2 |
| 20260506011005 | 71 | 248 | 1.0 | 4.0 | 0.00 | 0.00 | 0.00 | 44 | 1014.2 |
| 20260506010506 | 71 | 273 | 1.0 | 4.0 | 0.00 | 0.00 | 0.00 | 43 | 1014.2 |
| 20260506010012 | 71 | 248 | 1.0 | 3.0 | 0.00 | 0.00 | 0.00 | 43 | 1014.2 |
| 20260506005503 | 71 | 245 | 1.0 | 4.0 | 0.00 | 0.00 | 0.00 | 43 | 1014.2 |
| 20260506005004 | 71 | 237 | 2.0 | 4.0 | 0.00 | 0.00 | 0.00 | 43 | 1014.2 |
| 20260506004532 | 71 | 248 | 1.0 | 2.0 | 0.00 | 0.00 | 0.00 | 42 | 1014.1 |
| 20260506004007 | 71 | 247 | 1.0 | 3.0 | 0.00 | 0.00 | 0.00 | 41 | 1014.1 |
| 20260506003507 | 72 | 287 | 1.0 | 3.0 | 0.00 | 0.00 | 0.00 | 40 | 1014.1 |
| 20260506003020 | 72 | 283 | 1.0 | 3.0 | 0.00 | 0.00 | 0.00 | 39 | 1014.1 |
| 20260506002502 | 72 | 285 | 1.0 | 2.0 | 0.00 | 0.00 | 0.00 | 38 | 1014.1 |
| 20260506002001 | 72 | 288 | 1.0 | 3.0 | 0.00 | 0.00 | 0.00 | 38 | 1014.0 |
| 20260506001506 | 73 | 255 | 1.0 | 7.0 | 0.00 | 0.00 | 0.00 | 37 | 1014.0 |
| 20260506001002 | 73 | 248 | 2.0 | 7.0 | 0.00 | 0.00 | 0.00 | 36 | 1013.9 |
| 20260506000501 | 74 | 283 | 1.0 | 3.0 | 0.00 | 0.00 | 0.00 | 33 | 1013.8 |
| 20260506000007 | 75 | 318 | 1.0 | 4.0 | 0.00 | 0.00 | 0.00 | 32 | 1013.8 |
| 20260505235505 | 75 | 343 | 1.0 | 4.0 | 0.00 | 0.00 | 0.00 | 32 | 1013.8 |
| 20260505235005 | 75 | 49 | 2.0 | 5.0 | 0.00 | 0.00 | 0.00 | 31 | 1013.8 |
| 20260505234514 | 75 | 345 | 1.0 | 5.0 | 0.00 | 0.00 | 0.00 | 32 | 1013.9 |
| 20260505234009 | 75 | 319 | 1.0 | 4.0 | 0.00 | 0.00 | 0.00 | 32 | 1013.8 |
| 20260505233506 | 75 | 77 | 1.0 | 6.0 | 0.00 | 0.00 | 0.00 | 31 | 1013.8 |
| 20260505233026 | 75 | 56 | 2.0 | 6.0 | 0.00 | 0.00 | 0.00 | 31 | 1013.9 |
| 20260505232510 | 76 | 18 | 1.0 | 6.0 | 0.00 | 0.00 | 0.00 | 30 | 1013.8 |
| 20260505232010 | 77 | 276 | 1.0 | 6.0 | 0.00 | 0.00 | 0.00 | 29 | 1013.8 |
| 20260505231531 | 77 | 57 | 1.0 | 7.0 | 0.00 | 0.00 | 0.00 | 30 | 1013.8 |
| 20260505231003 | 77 | 73 | 1.0 | 7.0 | 0.00 | 0.00 | 0.00 | 29 | 1013.8 |
| 20260505230503 | 78 | 346 | 2.0 | 7.0 | 0.00 | 0.00 | 0.00 | 28 | 1013.7 |
| 20260505230007 | 78 | 40 | 3.0 | 6.0 | 0.00 | 0.00 | 0.00 | 28 | 1013.7 |
| 20260505225505 | 78 | 6 | 3.0 | 8.0 | 0.00 | 0.00 | 0.00 | 28 | 1013.6 |
| 20260505225003 | 78 | 341 | 3.0 | 8.0 | 0.00 | 0.00 | 0.00 | 28 | 1013.7 |
| 20260505224510 | 78 | 272 | 3.0 | 7.0 | 0.00 | 0.00 | 0.00 | 27 | 1013.6 |
| 20260505224007 | 79 | 98 | 2.0 | 7.0 | 0.00 | 0.00 | 0.00 | 28 | 1013.7 |
| 20260505223505 | 78 | 328 | 2.0 | 9.0 | 0.00 | 0.00 | 0.00 | 28 | 1013.8 |
| 20260505223019 | 78 | 136 | 2.0 | 13.0 | 0.00 | 0.00 | 0.00 | 28 | 1013.7 |
| 20260505222508 | 78 | 104 | 4.0 | 13.0 | 0.00 | 0.00 | 0.00 | 27 | 1013.9 |
| 20260505222012 | 78 | 60 | 3.0 | 9.0 | 0.00 | 0.00 | 0.00 | 29 | 1013.8 |
| 20260505221519 | 77 | 53 | 3.0 | 7.0 | 0.00 | 0.00 | 0.00 | 28 | 1013.9 |
| 20260505221006 | 78 | 39 | 2.0 | 8.0 | 0.00 | 0.00 | 0.00 | 28 | 1013.9 |
| 20260505220507 | 78 | 44 | 3.0 | 8.0 | 0.00 | 0.00 | 0.00 | 27 | 1013.8 |
| 20260505220043 | 78 | 56 | 3.0 | 8.0 | 0.00 | 0.00 | 0.00 | 28 | 1013.8 |
| 20260505215505 | 78 | 327 | 2.0 | 6.0 | 0.00 | 0.00 | 0.00 | 28 | 1013.9 |
| 20260505215003 | 78 | 52 | 1.0 | 5.0 | 0.00 | 0.00 | 0.00 | 28 | 1013.8 |
| 20260505214512 | 78 | 318 | 1.0 | 9.0 | 0.00 | 0.00 | 0.00 | 28 | 1013.8 |
| 20260505214005 | 78 | 292 | 3.0 | 9.0 | 0.00 | 0.00 | 0.00 | 28 | 1013.8 |
| 20260505213503 | 78 | 16 | 2.0 | 9.0 | 0.00 | 0.00 | 0.00 | 28 | 1013.8 |
| 20260505213018 | 77 | 338 | 3.0 | 9.0 | 0.00 | 0.00 | 0.00 | 27 | 1013.8 |
| 20260505212506 | 78 | 322 | 1.0 | 8.0 | 0.00 | 0.00 | 0.00 | 28 | 1013.9 |
| 20260505212007 | 77 | 319 | 2.0 | 10.0 | 0.00 | 0.00 | 0.00 | 30 | 1013.9 |
| 20260505211516 | 78 | 79 | 4.0 | 10.0 | 0.00 | 0.00 | 0.00 | 28 | 1013.9 |
| 20260505211002 | 77 | 160 | 2.0 | 7.0 | 0.00 | 0.00 | 0.00 | 28 | 1013.8 |
| 20260505210502 | 77 | 49 | 3.0 | 10.0 | 0.00 | 0.00 | 0.00 | 31 | 1014.0 |
| 20260505210004 | 76 | 234 | 3.0 | 14.0 | 0.00 | 0.00 | 0.00 | 30 | 1014.0 |
| 20260505205507 | 77 | 68 | 5.0 | 14.0 | 0.00 | 0.00 | 0.00 | 29 | 1014.2 |
| 20260505205004 | 77 | 316 | 3.0 | 9.0 | 0.00 | 0.00 | 0.00 | 30 | 1014.2 |
| 20260505204504 | 77 | 13 | 5.0 | 9.0 | 0.00 | 0.00 | 0.00 | 29 | 1014.2 |
| 20260505204004 | 77 | 295 | 2.0 | 7.0 | 0.00 | 0.00 | 0.00 | 30 | 1014.1 |
| 20260505203503 | 78 | 330 | 3.0 | 7.0 | 0.00 | 0.00 | 0.00 | 28 | 1014.2 |
| 20260505203010 | 77 | 323 | 3.0 | 7.0 | 0.00 | 0.00 | 0.00 | 30 | 1014.2 |
| 20260505202505 | 76 | 53 | 4.0 | 12.0 | 0.00 | 0.00 | 0.00 | 29 | 1014.2 |
| 20260505202004 | 76 | 81 | 5.0 | 12.0 | 0.00 | 0.00 | 0.00 | 29 | 1014.2 |
| 20260505201517 | 76 | 109 | 3.0 | 8.0 | 0.00 | 0.00 | 0.00 | 29 | 1014.3 |
| 20260505201007 | 76 | 50 | 3.0 | 8.0 | 0.00 | 0.00 | 0.00 | 30 | 1014.4 |
| 20260505200510 | 76 | 17 | 3.0 | 8.0 | 0.00 | 0.00 | 0.00 | 31 | 1014.4 |
| 20260505200021 | 77 | 7 | 3.0 | 8.0 | 0.00 | 0.00 | 0.00 | 30 | 1014.5 |
| 20260505195503 | 77 | 321 | 2.0 | 7.0 | 0.00 | 0.00 | 0.00 | 29 | 1014.5 |
| 20260505195003 | 76 | 59 | 1.0 | 7.0 | 0.00 | 0.00 | 0.00 | 31 | 1014.5 |
| 20260505194508 | 75 | 309 | 3.0 | 8.0 | 0.00 | 0.00 | 0.00 | 31 | 1014.5 |
| 20260505194009 | 74 | 310 | 5.0 | 8.0 | 0.00 | 0.00 | 0.00 | 32 | 1014.5 |
| 20260505193504 | 74 | 330 | 3.0 | 8.0 | 0.00 | 0.00 | 0.00 | 33 | 1014.5 |
| 20260505193004 | 75 | 321 | 3.0 | 8.0 | 0.00 | 0.00 | 0.00 | 33 | 1014.6 |
| 20260505192506 | 75 | 18 | 4.0 | 8.0 | 0.00 | 0.00 | 0.00 | 32 | 1014.5 |
| 20260505192004 | 75 | 47 | 3.0 | 5.0 | 0.00 | 0.00 | 0.00 | 35 | 1014.5 |
| 20260505191508 | 74 | 345 | 1.0 | 6.0 | 0.00 | 0.00 | 0.00 | 34 | 1014.5 |
| 20260505191002 | 75 | 131 | 2.0 | 6.0 | 0.00 | 0.00 | 0.00 | 34 | 1014.5 |
| 20260505190506 | 75 | 360 | 1.0 | 6.0 | 0.00 | 0.00 | 0.00 | 33 | 1014.5 |
| 20260505190015 | 74 | 65 | 3.0 | 6.0 | 0.00 | 0.00 | 0.00 | 35 | 1014.5 |
| 20260505185508 | 73 | 87 | 2.0 | 7.0 | 0.00 | 0.00 | 0.00 | 36 | 1014.5 |
| 20260505185012 | 73 | 27 | 3.0 | 7.0 | 0.00 | 0.00 | 0.00 | 37 | 1014.6 |
| 20260505184521 | 73 | 321 | 3.0 | 6.0 | 0.00 | 0.00 | 0.00 | 37 | 1014.5 |
| 20260505184002 | 72 | 299 | 2.0 | 8.0 | 0.00 | 0.00 | 0.00 | 36 | 1014.6 |
| 20260505183503 | 72 | 310 | 4.0 | 8.0 | 0.00 | 0.00 | 0.00 | 38 | 1014.8 |
| 20260505183004 | 71 | 96 | 2.0 | 5.0 | 0.00 | 0.00 | 0.00 | 36 | 1014.6 |
| 20260505182502 | 72 | 62 | 2.0 | 4.0 | 0.00 | 0.00 | 0.00 | 37 | 1014.7 |
| 20260505182002 | 72 | 75 | 2.0 | 5.0 | 0.00 | 0.00 | 0.00 | 37 | 1014.7 |
| 20260505181503 | 71 | 295 | 2.0 | 6.0 | 0.00 | 0.00 | 0.00 | 38 | 1014.6 |
| 20260505181005 | 70 | 53 | 2.0 | 8.0 | 0.00 | 0.00 | 0.00 | 39 | 1014.6 |
| 20260505180505 | 70 | 94 | 3.0 | 8.0 | 0.00 | 0.00 | 0.00 | 37 | 1014.6 |
| 20260505180010 | 70 | 90 | 3.0 | 6.0 | 0.00 | 0.00 | 0.00 | 37 | 1014.6 |
| 20260505175503 | 70 | 51 | 2.0 | 6.0 | 0.00 | 0.00 | 0.00 | 38 | 1014.6 |
| 20260505175007 | 70 | 267 | 2.0 | 4.0 | 0.00 | 0.00 | 0.00 | 38 | 1014.6 |
| 20260505174518 | 69 | 147 | 1.0 | 5.0 | 0.00 | 0.00 | 0.00 | 39 | 1014.5 |
| 20260505174006 | 69 | 321 | 3.0 | 5.0 | 0.00 | 0.00 | 0.00 | 39 | 1014.5 |
| 20260505173505 | 69 | 345 | 3.0 | 5.0 | 0.00 | 0.00 | 0.00 | 39 | 1014.5 |
| 20260505173020 | 69 | 340 | 0.0 | 4.0 | 0.00 | 0.00 | 0.00 | 40 | 1014.5 |
| 20260505172504 | 68 | 340 | 2.0 | 4.0 | 0.00 | 0.00 | 0.00 | 40 | 1014.5 |
| 20260505172001 | 68 | 143 | 0.0 | 4.0 | 0.00 | 0.00 | 0.00 | 40 | 1014.5 |
| 20260505171504 | 68 | 276 | 1.0 | 4.0 | 0.00 | 0.00 | 0.00 | 40 | 1014.5 |
| 20260505171004 | 67 | 257 | 1.0 | 5.0 | 0.00 | 0.00 | 0.00 | 43 | 1014.5 |
| 20260505170501 | 66 | 302 | 1.0 | 5.0 | 0.00 | 0.00 | 0.00 | 43 | 1014.6 |
| 20260505170007 | 66 | 68 | 1.0 | 4.0 | 0.00 | 0.00 | 0.00 | 43 | 1014.6 |
| 20260505165503 | 66 | 257 | 1.0 | 3.0 | 0.00 | 0.00 | 0.00 | 44 | 1014.7 |
| 20260505165003 | 66 | 292 | 1.0 | 3.0 | 0.00 | 0.00 | 0.00 | 44 | 1014.6 |
| 20260505164515 | 65 | 117 | 1.0 | 3.0 | 0.00 | 0.00 | 0.00 | 45 | 1014.6 |
| 20260505164011 | 65 | 131 | 1.0 | 3.0 | 0.00 | 0.00 | 0.00 | 47 | 1014.8 |
| 20260505163508 | 64 | 318 | 1.0 | 3.0 | 0.00 | 0.00 | 0.00 | 47 | 1014.8 |
| 20260505163017 | 65 | 315 | 0.0 | 3.0 | 0.00 | 0.00 | 0.00 | 46 | 1014.9 |
| 20260505162507 | 64 | 120 | 1.0 | 3.0 | 0.00 | 0.00 | 0.00 | 49 | 1014.9 |
| 20260505162011 | 63 | 146 | 0.0 | 3.0 | 0.00 | 0.00 | 0.00 | 50 | 1014.8 |
| 20260505161523 | 62 | 208 | 1.0 | 3.0 | 0.00 | 0.00 | 0.00 | 49 | 1014.8 |
| 20260505161004 | 62 | 221 | 0.0 | 3.0 | 0.00 | 0.00 | 0.00 | 50 | 1014.8 |
| 20260505160504 | 61 | 98 | 1.0 | 3.0 | 0.00 | 0.00 | 0.00 | 50 | 1014.8 |
| 20260505153013 | 57 | 248 | 0.0 | 2.0 | 0.00 | 0.00 | 0.00 | 56 | 1014.9 |
| 20260505152506 | 57 | 321 | 0.0 | 3.0 | 0.00 | 0.00 | 0.00 | 58 | 1014.7 |
| 20260505152006 | 56 | 321 | 1.0 | 3.0 | 0.00 | 0.00 | 0.00 | 61 | 1014.8 |
| 20260505151519 | 55 | 305 | 1.0 | 3.0 | 0.00 | 0.00 | 0.00 | 61 | 1014.8 |
| 20260505151007 | 55 | 311 | 1.0 | 2.0 | 0.00 | 0.00 | 0.00 | 61 | 1014.8 |
| 20260505150506 | 54 | 332 | 0.0 | 3.0 | 0.00 | 0.00 | 0.00 | 61 | 1014.7 |
| 20260505140508 | 43 | 236 | 0.0 | 1.0 | 0.00 | 0.00 | 0.00 | 68 | 1014.1 |
| 20260505125007 | 38 | 233 | 1.0 | 1.0 | 0.00 | 0.00 | 0.00 | 70 | 1013.4 |
| 20260505124534 | 37 | 236 | 1.0 | 1.0 | 0.00 | 0.00 | 0.00 | 71 | 1013.4 |
| 20260505124008 | 37 | 236 | 1.0 | 1.0 | 0.00 | 0.00 | 0.00 | 70 | 1013.4 |
| 20260505123507 | 37 | 236 | 0.0 | 1.0 | 0.00 | 0.00 | 0.00 | 70 | 1013.4 |
| 20260505123028 | 37 | 236 | 0.0 | 1.0 | 0.00 | 0.00 | 0.00 | 70 | 1013.4 |
| 20260505122508 | 37 | 236 | 0.0 | 1.0 | 0.00 | 0.00 | 0.00 | 70 | 1013.4 |
| 20260505122015 | 37 | 236 | 0.0 | 1.0 | 0.00 | 0.00 | 0.00 | 70 | 1013.3 |
| 20260505121510 | 37 | 236 | 0.0 | 1.0 | 0.00 | 0.00 | 0.00 | 70 | 1013.3 |
| 20260505102003 | 39 | 238 | 0.0 | 1.0 | 0.00 | 0.00 | 0.00 | 66 | 1013.1 |
| 20260505101504 | 40 | 238 | 1.0 | 1.0 | 0.00 | 0.00 | 0.00 | 66 | 1013.0 |
| 20260505101004 | 40 | 236 | 0.0 | 1.0 | 0.00 | 0.00 | 0.00 | 65 | 1013.1 |
| 20260505100504 | 40 | 236 | 1.0 | 1.0 | 0.00 | 0.00 | 0.00 | 65 | 1013.1 |
| 20260505100008 | 41 | 228 | 0.0 | 1.0 | 0.00 | 0.00 | 0.00 | 65 | 1013.0 |
| 20260505095504 | 41 | 227 | 0.0 | 1.0 | 0.00 | 0.00 | 0.00 | 65 | 1013.0 |
| 20260505095005 | 41 | 227 | 0.0 | 1.0 | 0.00 | 0.00 | 0.00 | 65 | 1012.9 |
| 20260505094512 | 41 | 227 | 0.0 | 1.0 | 0.00 | 0.00 | 0.00 | 65 | 1012.8 |
| 20260505094007 | 40 | 224 | 0.0 | 1.0 | 0.00 | 0.00 | 0.00 | 66 | 1012.9 |
| 20260505093507 | 40 | 223 | 0.0 | 1.0 | 0.00 | 0.00 | 0.00 | 66 | 1012.9 |
| 20260505093019 | 40 | 223 | 0.0 | 1.0 | 0.00 | 0.00 | 0.00 | 67 | 1012.8 |
| 20260505092503 | 40 | 223 | 1.0 | 1.0 | 0.00 | 0.00 | 0.00 | 67 | 1012.8 |
| 20260505092003 | 41 | 238 | 0.0 | 1.0 | 0.00 | 0.00 | 0.00 | 67 | 1012.8 |
| 20260505091503 | 40 | 238 | 0.0 | 1.0 | 0.00 | 0.00 | 0.00 | 68 | 1012.8 |
| 20260505091002 | 40 | 238 | 0.0 | 2.0 | 0.00 | 0.00 | 0.00 | 68 | 1012.8 |
| 20260505090503 | 41 | 238 | 1.0 | 2.0 | 0.00 | 0.00 | 0.00 | 69 | 1012.8 |
| 20260505090005 | 41 | 241 | 1.0 | 1.0 | 0.00 | 0.00 | 0.00 | 69 | 1012.8 |
| 20260505085504 | 41 | 255 | 0.0 | 1.0 | 0.00 | 0.00 | 0.00 | 68 | 1012.7 |
| 20260505085003 | 41 | 255 | 0.0 | 1.0 | 0.00 | 0.00 | 0.00 | 69 | 1012.8 |
| 20260505084532 | 41 | 250 | 0.0 | 1.0 | 0.00 | 0.00 | 0.00 | 69 | 1012.9 |
| 20260505084004 | 41 | 250 | 0.0 | 1.0 | 0.00 | 0.00 | 0.00 | 68 | 1012.9 |
| 20260505083504 | 42 | 250 | 0.0 | 2.0 | 0.00 | 0.00 | 0.00 | 69 | 1013.0 |
| 20260505083014 | 42 | 238 | 0.0 | 2.0 | 0.00 | 0.00 | 0.00 | 69 | 1013.1 |
| 20260505082507 | 42 | 239 | 1.0 | 1.0 | 0.00 | 0.00 | 0.00 | 69 | 1013.0 |
| 20260505082008 | 42 | 242 | 1.0 | 1.0 | 0.00 | 0.00 | 0.00 | 68 | 1013.0 |
| 20260505081520 | 43 | 243 | 0.0 | 1.0 | 0.00 | 0.00 | 0.00 | 67 | 1013.0 |
| 20260505081007 | 43 | 242 | 0.0 | 1.0 | 0.00 | 0.00 | 0.00 | 68 | 1013.0 |
| 20260505080503 | 43 | 242 | 0.0 | 1.0 | 0.00 | 0.00 | 0.00 | 68 | 1013.0 |
| 20260505080004 | 43 | 242 | 0.0 | 1.0 | 0.00 | 0.00 | 0.00 | 67 | 1013.0 |
| 20260505075504 | 43 | 242 | 0.0 | 1.0 | 0.00 | 0.00 | 0.00 | 67 | 1012.9 |
| 20260505075004 | 44 | 242 | 0.0 | 1.0 | 0.00 | 0.00 | 0.00 | 66 | 1012.8 |
| 20260505074508 | 44 | 242 | 0.0 | 1.0 | 0.00 | 0.00 | 0.00 | 66 | 1012.8 |
| 20260505074003 | 44 | 242 | 0.0 | 1.0 | 0.00 | 0.00 | 0.00 | 65 | 1012.8 |
| 20260505073503 | 45 | 255 | 1.0 | 1.0 | 0.00 | 0.00 | 0.00 | 65 | 1012.6 |
| 20260505073012 | 45 | 255 | 0.0 | 1.0 | 0.00 | 0.00 | 0.00 | 64 | 1012.7 |
| 20260505072503 | 45 | 255 | 0.0 | 1.0 | 0.00 | 0.00 | 0.00 | 64 | 1012.7 |
| 20260505072008 | 46 | 255 | 0.0 | 1.0 | 0.00 | 0.00 | 0.00 | 63 | 1012.7 |
| 20260505071519 | 46 | 255 | 0.0 | 1.0 | 0.00 | 0.00 | 0.00 | 62 | 1012.7 |
| 20260505071008 | 47 | 255 | 0.0 | 1.0 | 0.00 | 0.00 | 0.00 | 61 | 1012.6 |
| 20260505070509 | 47 | 255 | 0.0 | 1.0 | 0.00 | 0.00 | 0.00 | 61 | 1012.5 |
| 20260505070020 | 48 | 255 | 0.0 | 1.0 | 0.00 | 0.00 | 0.00 | 61 | 1012.4 |
| 20260505065509 | 48 | 255 | 0.0 | 1.0 | 0.00 | 0.00 | 0.00 | 61 | 1012.4 |
| 20260505065003 | 48 | 255 | 0.0 | 1.0 | 0.00 | 0.00 | 0.00 | 60 | 1012.4 |
| 20260505064503 | 49 | 255 | 0.0 | 1.0 | 0.00 | 0.00 | 0.00 | 59 | 1012.4 |
| 20260505064009 | 50 | 295 | 0.0 | 1.0 | 0.00 | 0.00 | 0.00 | 59 | 1012.3 |
| 20260505063503 | 51 | 295 | 0.0 | 1.0 | 0.00 | 0.00 | 0.00 | 60 | 1012.2 |
| 20260505063003 | 51 | 295 | 0.0 | 1.0 | 0.00 | 0.00 | 0.00 | 60 | 1012.1 |
| 20260505062503 | 51 | 295 | 0.0 | 1.0 | 0.00 | 0.00 | 0.00 | 59 | 1012.2 |
| 20260505062007 | 52 | 295 | 0.0 | 1.0 | 0.00 | 0.00 | 0.00 | 58 | 1012.1 |
| 20260505061517 | 52 | 295 | 0.0 | 1.0 | 0.00 | 0.00 | 0.00 | 57 | 1012.1 |
| 20260505061004 | 53 | 295 | 0.0 | 1.0 | 0.00 | 0.00 | 0.00 | 56 | 1012.1 |
| 20260505060507 | 53 | 295 | 0.0 | 1.0 | 0.00 | 0.00 | 0.00 | 55 | 1012.2 |
| 20260505060018 | 54 | 295 | 0.0 | 1.0 | 0.00 | 0.00 | 0.00 | 54 | 1012.2 |
| 20260505055509 | 54 | 295 | 0.0 | 1.0 | 0.00 | 0.00 | 0.00 | 53 | 1012.2 |
| 20260505055003 | 55 | 295 | 0.0 | 1.0 | 0.00 | 0.00 | 0.00 | 52 | 1012.2 |
| 20260505054504 | 55 | 295 | 0.0 | 0.0 | 0.00 | 0.00 | 0.00 | 52 | 1012.3 |
| 20260505054003 | 56 | 297 | 0.0 | 0.0 | 0.00 | 0.00 | 0.00 | 50 | 1012.3 |
| 20260505053503 | 57 | 297 | 0.0 | 0.0 | 0.00 | 0.00 | 0.00 | 49 | 1012.4 |
| 20260505053005 | 58 | 297 | 0.0 | 0.0 | 0.00 | 0.00 | 0.00 | 48 | 1012.4 |
| 20260505052503 | 58 | 297 | 0.0 | 1.0 | 0.00 | 0.00 | 0.00 | 47 | 1012.4 |
| 20260505052003 | 59 | 297 | 0.0 | 1.0 | 0.00 | 0.00 | 0.00 | 47 | 1012.4 |
| 20260505051517 | 59 | 297 | 0.0 | 2.0 | 0.00 | 0.00 | 0.00 | 47 | 1012.4 |
| 20260505051004 | 59 | 294 | 0.0 | 2.0 | 0.00 | 0.00 | 0.00 | 47 | 1012.2 |
| 20260505050506 | 59 | 281 | 1.0 | 2.0 | 0.00 | 0.00 | 0.00 | 47 | 1012.3 |
| 20260505041508 | 63 | 287 | 1.0 | 4.0 | 0.00 | 0.00 | 0.00 | 41 | 1011.7 |
| 20260505041004 | 63 | 289 | 2.0 | 8.0 | 0.00 | 0.00 | 0.00 | 41 | 1011.7 |
| 20260505040505 | 63 | 312 | 1.0 | 8.0 | 0.00 | 0.00 | 0.00 | 41 | 1011.7 |
| 20260505040009 | 63 | 304 | 3.0 | 8.0 | 0.00 | 0.00 | 0.00 | 41 | 1011.7 |
| 20260505035507 | 64 | 298 | 1.0 | 4.0 | 0.00 | 0.00 | 0.00 | 41 | 1011.6 |
| 20260505035007 | 64 | 263 | 2.0 | 4.0 | 0.00 | 0.00 | 0.00 | 40 | 1011.5 |
| 20260505034521 | 64 | 275 | 2.0 | 4.0 | 0.00 | 0.00 | 0.00 | 41 | 1011.5 |
| 20260505034008 | 64 | 290 | 2.0 | 8.0 | 0.00 | 0.00 | 0.00 | 40 | 1011.5 |